Lid_Strength_Index
2 2 2 2 2 2 2 2 2 2 2 2 2 2 2 2 3 4 4 3 6 10 10 8 7 10 11 12 14 14 14 14 15 15 15 17 19 16 18 18 20 19 17 16 16 17 18 16 16 15 13 15 15 15
2 2 2 2 2 2 2 2 2 2 1 1 2 2 2 2 2 3 6 3 4 8 9 6 7 7 8 9 10 12 12 13 12 14 16 16 16 19 18 18 19 17 15 15 14 15 13 15 13 13 13 14 16 16
2 2 2 2 1 1 -1 -1 -1 -1 -1 -1 -1 -0 1 1 0 1 4 4 6 9 9 9 9 6 6 7 7 13 11 10 11 10 14 15 17 17 18 17 19 18 17 18 15 15 14 14 14 14 14 14 15 15
2 2 1 0 -1 -1 -1 -1 -1 -1 -1 -1 -1 -1 -1 -1 -0 0 4 4 5 7 10 10 7 7 6 6 7 7 9 9 9 10 13 14 15 15 17 16 15 17 16 20 18 17 15 14 14 13 14 14 14 14
2 1 -1 -1 -1 -1 -1 -1 -1 -1 -1 -1 -1 -1 -1 -1 -0 1 5 4 3 6 10 10 10 8 7 6 7 8 8 9 11 13 14 14 15 16 17 18 18 17 18 15 14 13 12 12 12 13 13 13 13 14
1 -0 -1 -1 -1 -1 -1 -1 -1 -0 -1 -1 -1 -1 -1 0 1 4 8 6 4 3 9 11 10 11 9 6 7 8 8 9 11 13 14 14 14 14 15 17 15 16 15 12 13 13 13 16 17 15 13 13 14 14
-0 -1 -0 -1 -1 -1 -1 -1 -1 -0 -1 -1 -0 0 1 1 3 9 12 8 2 3 9 11 11 11 11 10 11 12 11 13 13 13 14 14 14 13 15 16 14 15 14 14 14 14 15 17 13 17 17 19 19 20
-0 -0 0 -0 -0 -1 -1 -1 -1 -1 -1 -1 1 1 2 2 3 5 4 2 3 6 9 12 12 12 10 11 12 11 12 13 13 13 13 13 14 14 14 13 13 13 14 15 14 14 14 17 19 21 22 21 19 19
0 1 1 0 -0 -0 -0 -1 -1 -1 -1 1 1 1 4 8 11 7 2 3 4 6 10 13 13 13 11 12 11 12 12 13 13 13 13 13 14 14 13 14 14 13 14 13 15 18 19 17 17 20 19 20 19 18
1 1 0 -0 -0 -0 -0 -0 -1 -1 -0 1 5 9 12 8 3 4 12 16 12 10 9 18 17 11 10 12 12 12 11 13 15 13 12 13 14 15 14 14 15 15 16 15 16 19 19 20 18 20 22 18 18 21
1 1 1 0 -0 -0 -0 -0 -0 -0 0 7 10 11 7 4 10 17 21 20 14 13 16 11 11 10 8 11 12 11 13 13 16 15 14 14 16 16 15 17 19 18 17 19 17 16 16 15 18 21 21 21 21 24
2 2 1 1 1 1 -0 -0 -0 4 6 7 7 8 11 16 18 19 22 18 22 20 14 14 10 9 9 8 11 11 13 13 17 12 13 17 17 18 19 22 22 21 20 20 20 19 19 19 19 21 24 25 26 28
2 2 0 1 2 2 1 1 2 3 4 8 11 14 14 19 22 24 23 21 16 15 15 13 14 9 9 8 11 10 12 15 11 14 15 17 21 21 21 22 23 23 22 22 23 23 23 24 24 24 25 26 27 27
2 2 1 1 1 2 3 3 4 7 11 14 15 19 20 23 24 25 23 21 18 17 20 18 14 14 12 10 11 14 13 11 14 17 18 19 20 20 22 22 21 22 23 24 25 25 25 26 27 27 28 27 26 27
3 2 2 2 2 2 3 4 6 10 12 17 16 19 21 23 23 28 28 23 20 13 13 17 18 11 11 11 11 13 15 15 14 16 19 28 28 23 24 23 22 22 23 23 24 27 27 28 28 30 30 29 29 28
3 4 3 2 2 2 3 6 11 13 16 16 18 19 21 18 19 16 19 23 17 17 12 15 18 13 16 17 15 14 16 23 18 24 31 31 27 25 24 24 23 23 23 24 24 24 25 26 28 30 30 30 30 29
4 10 3 2 2 3 4 11 12 17 18 19 19 24 23 22 20 24 25 20 14 19 20 22 20 17 13 14 16 21 17 20 28 33 34 33 32 30 26 25 25 25 25 25 26 26 28 27 28 28 30 31 30 30
11 5 2 2 5 7 12 15 18 20 19 18 22 23 19 25 19 17 15 19 19 21 21 19 18 19 16 15 14 19 31 32 33 30 30 30 31 29 28 28 26 25 26 26 26 27 27 27 28 29 29 29 29 29
4 4 3 3 7 14 16 16 17 20 23 25 23 24 25 26 23 22 26 20 24 22 18 20 19 21 16 13 15 17 24 29 26 25 26 28 28 27 27 27 26 26 26 26 26 26 27 27 27 27 28 27 29 29
3 3 4 6 8 13 14 17 19 18 22 22 24 24 24 24 24 28 28 26 23 23 20 20 19 18 16 16 21 23 21 22 25 27 27 25 24 24 25 26 26 26 25 25 25 24 24 25 24 25 25 26 27 28
9 7 6 14 20 22 23 25 19 21 25 24 26 24 25 26 28 27 26 25 21 24 22 21 25 28 29 25 24 27 22 20 20 21 24 26 24 23 24 24 24 25 25 25 25 25 25 26 26 25 25 26 26 27
17 7 16 13 19 23 23 27 23 24 21 22 21 23 25 24 26 27 27 23 24 20 25 28 30 30 30 27 28 25 25 22 23 22 22 23 24 24 24 24 23 24 24 25 24 25 26 26 25 26 27 28 28 28
11 13 17 19 18 20 23 25 24 24 23 25 26 24 25 25 26 26 25 25 24 31 35 33 32 29 28 31 30 27 27 23 24 23 22 23 23 23 23 24 23 24 26 28 26 25 26 25 26 27 28 28 28 29
11 18 21 23 20 23 26 28 28 26 25 23 22 22 24 26 26 25 25 25 28 30 32 32 30 26 23 23 27 29 28 25 24 24 23 23 24 25 24 24 24 26 26 25 25 25 25 26 26 27 27 28 29 29
16 19 19 24 26 23 27 25 27 25 25 31 24 21 20 24 21 22 22 20 23 26 28 28 24 23 21 24 26 27 29 24 22 25 27 24 26 26 27 28 28 28 27 24 25 25 26 26 26 26 27 27 29 31
20 25 24 27 26 23 26 25 28 25 29 29 28 32 31 22 19 17 19 24 24 24 25 25 24 24 24 24 26 27 27 29 23 25 29 25 24 23 26 26 26 26 28 28 24 26 26 26 27 27 28 28 28 29
21 23 27 29 30 29 29 30 31 30 28 25 29 31 28 24 24 23 24 27 27 29 30 27 25 24 24 27 31 32 32 32 28 26 28 29 29 27 26 24 24 26 28 28 26 24 25 26 27 27 29 31 31 29
32 29 26 28 29 30 27 30 29 28 32 37 33 27 26 26 25 29 30 30 33 32 31 31 32 31 29 30 30 31 32 29 28 28 27 28 31 31 31 31 29 23 27 27 27 26 26 26 27 29 29 30 35 38
32 33 32 26 28 28 31 29 32 36 36 38 31 31 31 36 38 37 36 37 37 32 29 28 32 32 32 33 33 31 28 27 26 27 28 29 30 28 33 32 30 30 30 29 23 27 28 28 29 30 32 31 35 35
33 35 30 28 26 25 34 40 40 40 40 41 42 39 38 39 40 45 43 41 36 36 36 34 35 33 31 30 31 30 34 37 34 28 26 29 28 32 33 32 30 31 29 27 25 22 20 26 27 33 32 32 32 32
34 35 32 30 31 35 35 38 38 39 39 40 40 39 38 39 37 39 40 43 45 44 40 38 37 41 36 36 36 34 33 35 39 39 40 40 36 31 31 32 32 31 29 27 25 28 29 31 30 31 31 32 33 31
36 35 33 30 32 35 36 36 35 36 36 34 32 33 31 32 32 35 36 38 37 37 35 40 37 35 39 39 37 37 32 36 34 37 39 38 37 33 31 32 32 30 28 28 29 29 30 30 30 30 32 32 33 33
41 40 37 33 32 32 37 38 33 32 32 32 34 38 36 34 28 31 33 33 34 34 35 34 34 34 34 33 32 32 30 33 32 24 28 28 30 29 32 32 31 29 28 29 30 30 31 32 32 34 33 33 33 34